Location: Castifao
(42.5040°N, 9.1124°E)
Time: 01:10:17
(UTC+00:00)

Atlas Centaur 2 - Pass Details

Date: 23 January 2020
Orbit: 459 x 1310 km, 30.4° (Epoch: 19 February)

Event Time Altitude Azimuth Distance (km) Brightness Sun altitude
Rises 19:05:07 0° 240° (WSW) 2,989 5.9 -29.4°
Reaches altitude 10° 19:07:40 10° 226° (SW) 2,209 4.9 -29.8°
Enters shadow 19:10:41 23° 192° (SSW) 1,663 3.8 -30.4°
